Weather History for West Palm Beach, FL

Change the Weather History Date:

Tuesday, January 13, 2015

  Actual Average Record
Temperature  
Mean Temperature 75 °F 65 °F  
Max Temperature 81 °F 74 °F 84 °F (1946)
Min Temperature 69 °F 57 °F 31 °F (1922)
Degree Days  
Heating Degree Days 0 3  
Month to date heating degree days 1 39  
Since 1 July heating degree days 43 110  
Cooling Degree Days 10 3  
Month to date cooling degree days 119 46  
Year to date cooling degree days 119 46  
Growing Degree Days 25 (Base 50)    
Moisture  
Dew Point 68 °F    
Average Humidity 78    
Maximum Humidity 93    
Minimum Humidity 62    
Precipitation  
Precipitation 0.07 in 0.11 in 2.57 in (1948)
Month to date precipitation 0.71 1.42  
Year to date precipitation 0.71 1.42  
Snow  
Snow 0.00 in - - ()
Month to date snowfall 0.0  
Since 1 July snowfall 0.0  
Snow Depth 0.00 in    
Sea Level Pressure  
Sea Level Pressure 30.06 in    
Wind  
Wind Speed 7 mph (NE)    
Max Wind Speed 17 mph    
Max Gust Speed 21 mph    
Visibility 9 miles    
Events Rain    
T = Trace of Precipitation, MM = Missing Value Source: NWS Daily Summary

Daily Weather History Graph

Daily Weather History Graph

Search for Another Location

Airport:

Trip Planner

Search our weather history database for the weather conditions in past years. The results will help you decide how hot, cold, wet, or windy it might be!

Date:

Astronomy

Jan. 13, 2015 Rise Set
Actual Time 7:10 AM EST 5:47 PM EST
Civil Twilight 6:45 AM EST 6:12 PM EST
Nautical Twilight 6:16 AM EST 6:41 PM EST
Astronomical Twilight 5:48 AM EST 7:09 PM EST
Moon 12:23 AM EST (1/13) 12:10 PM EST (1/13)
Length of Visible Light 11h 27m
Length of Day
10h 37m
Waning Gibbous, 47% of the Moon is Illuminated
Jan 13
Waning Gibbous
Jan 20
New
Jan 26
First Quarter
Feb 3
Full
Feb 11
Last Quarter

Hourly Weather History & Observations

Time (EST) Temp. Heat Index Dew Point Humidity Pressure Visibility Wind Dir Wind Speed Gust Speed Precip Events Conditions
12:53 AM 70.0 °F - 66.9 °F 90% 30.06 in 10.0 mi North 11.5 mph - N/A   Overcast
1:25 AM 71.1 °F - 68.0 °F 90% 30.05 in 10.0 mi North 9.2 mph - 0.00 in Rain Light Rain
1:53 AM 71.1 °F - 69.1 °F 93% 30.06 in 9.0 mi NW 10.4 mph - 0.00 in Rain Light Rain
2:41 AM 71.1 °F - 69.1 °F 93% 30.06 in 10.0 mi NNE 3.5 mph - 0.07 in   Mostly Cloudy
2:53 AM 71.1 °F - 69.1 °F 93% 30.06 in 10.0 mi North 5.8 mph - 0.07 in   Mostly Cloudy
3:53 AM 71.1 °F - 69.1 °F 93% 30.04 in 10.0 mi NW 4.6 mph - N/A   Mostly Cloudy
4:53 AM 71.1 °F - 69.1 °F 93% 30.03 in 10.0 mi Calm Calm - N/A   Mostly Cloudy
5:53 AM 72.0 °F - 69.1 °F 91% 30.04 in 10.0 mi NNE 4.6 mph - N/A   Mostly Cloudy
6:53 AM 71.4 °F - 65.8 °F 82% 30.06 in 10.0 mi NW 5.8 mph - N/A   Overcast
7:53 AM 74.8 °F - 69.3 °F 83% 30.07 in 10.0 mi ENE 12.7 mph - N/A   Mostly Cloudy
8:04 AM 75.0 °F - 69.1 °F 82% 30.08 in 10.0 mi ENE 9.2 mph - N/A   Mostly Cloudy
8:53 AM 75.0 °F - 70.0 °F 84% 30.11 in 10.0 mi East 13.8 mph - N/A   Mostly Cloudy
9:53 AM 73.9 °F - 68.0 °F 82% 30.12 in 10.0 mi East 15.0 mph - 0.00 in   Mostly Cloudy
10:53 AM 76.1 °F - 67.8 °F 75% 30.12 in 10.0 mi East 12.7 mph - N/A   Mostly Cloudy
11:04 AM 77.0 °F - 71.1 °F 82% 30.12 in 10.0 mi East 11.5 mph - N/A   Mostly Cloudy
11:53 AM 75.9 °F - 69.1 °F 79% 30.09 in 10.0 mi ESE 10.4 mph - N/A   Mostly Cloudy
12:53 PM 79.0 °F - 69.1 °F 72% 30.05 in 10.0 mi ESE 8.1 mph - N/A   Scattered Clouds
1:53 PM 79.0 °F - 69.1 °F 72% 30.02 in 10.0 mi SE 9.2 mph - N/A   Scattered Clouds
2:53 PM 81.0 °F 83.0 °F 66.0 °F 60% 30.02 in 10.0 mi East 3.5 mph - N/A   Scattered Clouds
3:53 PM 80.1 °F 82.3 °F 66.9 °F 64% 30.02 in 10.0 mi Calm Calm - N/A   Mostly Cloudy
4:53 PM 78.1 °F - 69.1 °F 74% 30.03 in 10.0 mi East 6.9 mph - N/A   Mostly Cloudy
5:53 PM 77.0 °F - 68.0 °F 74% 30.04 in 10.0 mi NNE 5.8 mph - N/A   Mostly Cloudy
6:53 PM 77.0 °F - 68.0 °F 74% 30.05 in 10.0 mi NNE 3.5 mph - N/A   Mostly Cloudy
7:53 PM 75.9 °F - 69.1 °F 79% 30.05 in 10.0 mi NNE 3.5 mph - N/A   Mostly Cloudy
8:53 PM 73.8 °F - 68.5 °F 84% 30.06 in 10.0 mi NNW 6.9 mph - N/A   Scattered Clouds
9:53 PM 72.9 °F - 68.7 °F 87% 30.07 in 10.0 mi NNW 8.1 mph - N/A   Mostly Cloudy
10:53 PM 72.0 °F - 70.0 °F 93% 30.06 in 10.0 mi North 6.9 mph - N/A   Mostly Cloudy
11:42 PM 71.1 °F - 68.0 °F 90% 30.05 in 1.0 mi North 8.1 mph - N/A   Overcast
11:53 PM 71.1 °F - 68.0 °F 90% 30.05 in 1.0 mi North 9.2 mph - N/A   Overcast